Temp
-6 -6 -6 -6 -6 -6 -6 -6 -6 -6 -6 -6 -7 -7 -7 -7 -7 -7 -7 -6 -6 -6 -6 -6 -6 -7 -7 -7 -7 -7 -7 -7 -7 -7 -7 -7 -7 -7 -7 -7 -7 -7 -7 -7 -7 -7 -7 -7 -7 -7 -8 -8 -8 -8 -8 -8 -8 -8 -8 -8 -9 -9 -9
-6 -6 -6 -6 -6 -6 -7 -6 -6 -6 -6 -6 -7 -7 -7 -7 -7 -7 -7 -7 -7 -7 -6 -6 -7 -7 -7 -7 -7 -7 -7 -7 -7 -7 -7 -7 -7 -7 -7 -7 -7 -7 -7 -7 -7 -7 -8 -8 -8 -8 -8 -8 -8 -8 -8 -8 -8 -8 -8 -8 -9 -9 -9
-6 -6 -6 -6 -6 -6 -7 -7 -6 -6 -7 -7 -7 -7 -7 -7 -7 -7 -7 -7 -7 -7 -7 -7 -7 -7 -7 -7 -7 -7 -7 -7 -7 -7 -7 -7 -7 -7 -7 -7 -7 -8 -8 -8 -8 -8 -8 -8 -8 -8 -8 -8 -8 -8 -8 -8 -8 -8 -8 -9 -9 -9 -9
-6 -6 -6 -7 -6 -6 -6 -7 -7 -7 -7 -7 -7 -7 -7 -7 -7 -7 -7 -7 -7 -7 -7 -7 -7 -7 -7 -7 -7 -7 -7 -7 -7 -7 -7 -7 -7 -7 -7 -7 -8 -8 -8 -8 -8 -8 -8 -8 -8 -8 -8 -8 -8 -8 -8 -8 -8 -8 -8 -9 -9 -9 -9
-7 -6 -7 -7 -6 -7 -7 -6 -7 -7 -7 -7 -7 -7 -7 -7 -7 -8 -7 -7 -7 -7 -7 -7 -7 -7 -7 -7 -7 -7 -7 -7 -7 -7 -7 -7 -7 -7 -7 -7 -8 -8 -8 -8 -8 -8 -8 -8 -8 -8 -8 -8 -8 -8 -8 -8 -8 -8 -9 -9 -9 -9 -9
-7 -6 -7 -7 -6 -7 -7 -6 -7 -7 -7 -7 -7 -7 -7 -7 -7 -8 -7 -7 -7 -7 -7 -7 -8 -7 -7 -7 -7 -7 -8 -8 -8 -8 -8 -7 -7 -7 -7 -7 -8 -8 -8 -8 -8 -8 -8 -8 -8 -8 -8 -8 -8 -8 -8 -8 -8 -9 -9 -9 -9 -9 -10
-7 -7 -7 -7 -7 -7 -7 -7 -7 -7 -7 -7 -7 -7 -7 -7 -7 -7 -7 -8 -8 -8 -8 -8 -8 -8 -7 -7 -8 -8 -8 -8 -8 -8 -8 -8 -8 -7 -7 -8 -8 -8 -8 -8 -8 -8 -8 -8 -8 -8 -8 -8 -8 -8 -8 -9 -9 -9 -9 -9 -9 -9 -10
-7 -7 -7 -7 -7 -7 -7 -7 -7 -7 -7 -7 -7 -7 -7 -7 -7 -7 -7 -8 -8 -8 -8 -8 -8 -8 -8 -8 -8 -8 -8 -8 -8 -8 -8 -8 -8 -8 -7 -8 -8 -8 -8 -8 -8 -8 -8 -8 -8 -8 -8 -8 -8 -8 -9 -9 -9 -9 -9 -9 -9 -10 -10
-7 -7 -7 -7 -7 -7 -7 -7 -7 -7 -7 -7 -7 -7 -7 -7 -7 -8 -8 -8 -8 -8 -8 -8 -8 -8 -8 -8 -8 -8 -8 -8 -8 -8 -8 -8 -8 -8 -8 -8 -8 -8 -8 -8 -8 -8 -8 -8 -8 -8 -8 -8 -9 -9 -9 -9 -9 -9 -10 -10 -10 -10 -10
-7 -7 -7 -8 -8 -7 -7 -7 -7 -7 -7 -7 -7 -7 -7 -7 -8 -8 -8 -8 -8 -8 -8 -8 -8 -8 -8 -8 -8 -8 -8 -8 -8 -8 -8 -8 -8 -8 -8 -8 -8 -8 -8 -8 -8 -8 -8 -8 -9 -9 -9 -9 -9 -9 -9 -9 -9 -10 -10 -10 -10 -10 -10
-7 -7 -8 -8 -8 -8 -7 -7 -7 -8 -7 -7 -7 -7 -7 -7 -8 -8 -8 -8 -8 -8 -8 -8 -8 -8 -8 -9 -9 -9 -8 -8 -8 -8 -8 -8 -8 -8 -8 -8 -8 -8 -8 -8 -8 -8 -8 -9 -9 -9 -9 -9 -9 -9 -9 -9 -10 -10 -10 -10 -10 -11 -11
-8 -8 -8 -8 -8 -8 -8 -7 -7 -8 -8 -7 -7 -7 -7 -7 -7 -8 -8 -8 -8 -8 -8 -8 -8 -8 -8 -8 -9 -9 -9 -9 -9 -9 -9 -9 -9 -8 -8 -8 -8 -8 -8 -8 -8 -8 -8 -8 -9 -9 -9 -9 -9 -9 -9 -10 -10 -10 -10 -10 -11 -11 -11
-8 -8 -8 -8 -8 -7 -7 -7 -7 -7 -7 -7 -7 -7 -7 -7 -8 -8 -8 -8 -8 -8 -8 -8 -9 -9 -8 -9 -9 -8 -8 -9 -9 -9 -9 -9 -9 -8 -8 -9 -9 -8 -8 -8 -8 -8 -8 -8 -9 -9 -9 -9 -9 -9 -10 -10 -10 -10 -10 -11 -11 -11 -11
-7 -8 -8 -8 -7 -7 -7 -7 -7 -7 -7 -7 -7 -7 -7 -8 -8 -8 -8 -8 -8 -8 -8 -8 -8 -9 -9 -9 -9 -9 -9 -9 -9 -9 -9 -9 -8 -8 -9 -9 -9 -9 -9 -9 -9 -9 -9 -9 -9 -9 -9 -9 -9 -10 -10 -10 -10 -10 -11 -11 -11 -11 -11
-7 -7 -7 -7 -7 -7 -7 -7 -7 -7 -7 -7 -7 -8 -8 -8 -8 -8 -8 -8 -8 -8 -8 -8 -8 -9 -9 -9 -9 -9 -9 -9 -9 -9 -9 -9 -9 -9 -9 -9 -9 -9 -9 -9 -9 -9 -9 -9 -9 -9 -9 -9 -10 -10 -10 -10 -11 -11 -11 -11 -11 -11 -12
-8 -7 -7 -7 -7 -7 -6 -7 -7 -7 -7 -7 -8 -8 -8 -8 -8 -8 -7 -7 -8 -8 -9 -9 -9 -9 -9 -9 -10 -9 -9 -9 -9 -9 -9 -9 -9 -9 -9 -9 -9 -9 -9 -9 -9 -9 -9 -9 -9 -9 -9 -10 -10 -10 -10 -11 -11 -11 -11 -11 -11 -12 -12
-8 -8 -7 -7 -7 -7 -6 -6 -7 -7 -7 -8 -8 -8 -8 -8 -7 -7 -7 -8 -8 -9 -9 -9 -9 -10 -10 -10 -10 -9 -9 -9 -10 -10 -10 -10 -9 -9 -9 -9 -9 -9 -9 -9 -9 -9 -9 -9 -9 -10 -10 -10 -10 -11 -11 -11 -11 -11 -11 -12 -12 -12 -12
-7 -7 -7 -7 -7 -6 -6 -6 -6 -7 -7 -8 -8 -8 -8 -8 -7 -7 -7 -8 -9 -9 -9 -9 -10 -10 -10 -10 -10 -9 -9 -9 -10 -10 -10 -10 -10 -9 -9 -9 -9 -9 -9 -9 -9 -9 -10 -10 -10 -10 -10 -11 -11 -11 -11 -11 -12 -12 -12 -12 -12 -12 -13
-7 -7 -7 -7 -7 -7 -6 -6 -6 -7 -7 -8 -8 -8 -8 -7 -7 -7 -8 -8 -8 -9 -9 -10 -10 -10 -10 -10 -10 -9 -9 -10 -10 -10 -10 -10 -10 -9 -9 -9 -9 -9 -10 -10 -10 -10 -10 -10 -10 -10 -10 -11 -11 -11 -11 -11 -12 -12 -12 -12 -13 -13 -13
-7 -7 -7 -7 -7 -7 -7 -7 -7 -7 -7 -8 -8 -8 -8 -7 -7 -8 -8 -8 -8 -9 -9 -10 -10 -10 -10 -10 -10 -10 -10 -10 -10 -10 -10 -10 -9 -9 -9 -9 -10 -10 -10 -10 -10 -10 -10 -11 -11 -11 -11 -11 -11 -11 -12 -12 -12 -12 -13 -13 -13 -13 -13
-7 -7 -7 -7 -7 -7 -7 -7 -7 -7 -7 -7 -8 -8 -8 -8 -8 -8 -7 -7 -8 -9 -9 -10 -10 -10 -10 -10 -10 -9 -10 -10 -10 -10 -10 -10 -9 -9 -9 -10 -10 -10 -11 -11 -11 -11 -11 -11 -11 -11 -11 -11 -11 -12 -12 -12 -12 -12 -13 -13 -13 -13 -14
-7 -7 -7 -7 -7 -7 -7 -7 -7 -7 -7 -7 -7 -7 -7 -8 -8 -7 -7 -7 -8 -9 -9 -10 -10 -10 -10 -9 -9 -9 -9 -10 -10 -10 -10 -10 -10 -10 -10 -10 -10 -10 -11 -11 -11 -12 -12 -12 -12 -12 -12 -12 -12 -12 -12 -12 -12 -13 -13 -13 -13 -14 -14
-8 -7 -7 -7 -7 -7 -8 -8 -7 -7 -7 -7 -7 -7 -7 -7 -7 -7 -7 -8 -9 -10 -10 -10 -10 -10 -10 -10 -9 -9 -9 -10 -10 -10 -10 -10 -10 -10 -10 -10 -10 -11 -11 -11 -12 -12 -12 -12 -12 -12 -12 -12 -12 -12 -12 -12 -13 -13 -14 -14 -14 -14 -14
-8 -7 -7 -7 -8 -8 -8 -8 -8 -8 -8 -7 -7 -7 -7 -7 -8 -8 -9 -9 -10 -10 -10 -10 -10 -10 -10 -10 -10 -10 -10 -10 -10 -10 -10 -10 -10 -11 -11 -11 -11 -11 -11 -11 -12 -12 -12 -12 -12 -12 -12 -12 -12 -13 -13 -13 -13 -14 -14 -14 -14 -14 -14
-7 -7 -7 -7 -8 -8 -8 -8 -8 -8 -8 -8 -8 -7 -7 -7 -8 -9 -9 -10 -10 -10 -10 -10 -11 -11 -11 -11 -11 -11 -11 -11 -11 -11 -11 -11 -11 -11 -11 -11 -11 -11 -11 -12 -12 -12 -12 -12 -12 -12 -12 -12 -12 -13 -13 -13 -14 -14 -14 -14 -14 -14 -14
-7 -8 -7 -8 -8 -8 -8 -8 -8 -8 -8 -8 -8 -7 -7 -8 -9 -10 -10 -10 -10 -10 -10 -10 -10 -10 -10 -11 -11 -12 -12 -12 -11 -11 -11 -11 -11 -11 -11 -11 -12 -12 -12 -12 -13 -13 -13 -13 -13 -12 -12 -12 -13 -13 -13 -14 -14 -14 -14 -14 -14 -14 -14
-8 -8 -8 -8 -8 -8 -8 -8 -8 -8 -8 -8 -8 -8 -8 -9 -10 -10 -10 -10 -10 -11 -11 -10 -10 -10 -10 -11 -11 -12 -12 -12 -11 -12 -12 -12 -11 -11 -12 -12 -12 -12 -12 -12 -13 -13 -13 -13 -13 -12 -12 -13 -13 -14 -14 -14 -14 -14 -14 -14 -14 -14 -14
-8 -8 -8 -8 -8 -9 -8 -8 -8 -8 -8 -8 -8 -8 -9 -10 -10 -10 -10 -10 -11 -11 -11 -11 -11 -11 -11 -12 -12 -12 -12 -12 -12 -12 -12 -12 -12 -12 -12 -12 -12 -12 -13 -13 -13 -13 -13 -13 -13 -12 -12 -13 -14 -14 -14 -14 -14 -14 -14 -14 -14 -14 -14
-8 -8 -8 -8 -9 -9 -8 -8 -8 -9 -9 -9 -9 -9 -9 -10 -10 -10 -11 -11 -11 -11 -11 -11 -11 -12 -12 -12 -12 -12 -12 -12 -12 -12 -12 -12 -12 -12 -12 -12 -12 -12 -13 -13 -13 -13 -13 -13 -13 -13 -13 -13 -13 -13 -13 -14 -14 -14 -14 -14 -14 -14 -14
-9 -9 -8 -8 -9 -9 -8 -8 -9 -9 -9 -10 -10 -10 -10 -10 -11 -11 -11 -11 -11 -11 -11 -12 -12 -12 -12 -12 -12 -12 -12 -12 -12 -12 -13 -12 -12 -12 -12 -12 -12 -12 -12 -13 -13 -13 -13 -13 -13 -13 -13 -13 -13 -13 -13 -14 -14 -14 -14 -14 -14 -14 -14
-9 -9 -9 -9 -9 -9 -9 -9 -9 -9 -9 -10 -10 -10 -10 -11 -11 -11 -11 -11 -11 -11 -12 -12 -12 -12 -12 -12 -13 -13 -12 -12 -12 -12 -12 -13 -12 -12 -12 -12 -13 -12 -12 -12 -13 -13 -13 -13 -13 -13 -14 -14 -14 -14 -13 -14 -14 -14 -14 -15 -15 -14 -14
-9 -9 -9 -9 -9 -10 -10 -10 -10 -9 -9 -10 -10 -11 -11 -11 -11 -11 -11 -11 -11 -11 -12 -12 -12 -12 -12 -13 -13 -13 -13 -12 -12 -12 -13 -13 -13 -13 -13 -13 -13 -13 -12 -13 -13 -13 -13 -13 -13 -13 -14 -14 -14 -14 -14 -14 -14 -14 -14 -15 -15 -15 -14
-9 -9 -9 -10 -10 -10 -10 -10 -10 -10 -10 -10 -10 -11 -11 -11 -11 -11 -11 -11 -11 -11 -11 -12 -12 -12 -12 -13 -13 -12 -12 -12 -12 -12 -13 -13 -13 -13 -13 -13 -13 -13 -13 -13 -13 -13 -13 -13 -13 -13 -14 -14 -14 -14 -14 -14 -14 -14 -15 -15 -15 -15 -15
-9 -10 -10 -10 -10 -10 -10 -10 -10 -10 -10 -10 -11 -11 -11 -11 -12 -12 -12 -12 -11 -12 -12 -12 -12 -12 -12 -12 -12 -12 -12 -12 -12 -12 -13 -13 -13 -13 -13 -13 -13 -13 -13 -13 -13 -13 -13 -13 -14 -14 -14 -14 -14 -14 -14 -14 -14 -15 -15 -15 -15 -15 -15
-10 -10 -10 -10 -10 -10 -10 -10 -10 -10 -10 -11 -11 -11 -11 -12 -12 -12 -12 -12 -12 -12 -12 -12 -12 -12 -12 -12 -12 -12 -12 -12 -13 -13 -13 -13 -13 -13 -13 -13 -13 -13 -13 -13 -14 -14 -14 -14 -14 -14 -14 -14 -15 -14 -14 -14 -15 -15 -15 -15 -15 -15 -15
-10 -10 -10 -10 -10 -10 -10 -10 -10 -10 -11 -11 -11 -11 -11 -12 -12 -12 -12 -12 -12 -12 -12 -12 -12 -12 -12 -12 -12 -12 -12 -13 -13 -13 -13 -13 -13 -13 -13 -14 -14 -14 -14 -14 -14 -14 -14 -14 -14 -14 -14 -15 -15 -15 -14 -15 -15 -15 -15 -15 -16 -16 -16
-10 -10 -10 -10 -10 -10 -10 -10 -10 -11 -11 -11 -11 -12 -12 -12 -12 -12 -12 -12 -13 -13 -13 -13 -13 -13 -13 -13 -13 -13 -13 -13 -13 -13 -13 -13 -13 -14 -14 -14 -14 -14 -14 -14 -14 -14 -14 -14 -14 -15 -15 -15 -15 -15 -15 -15 -15 -15 -15 -16 -16 -16 -16
-10 -10 -10 -10 -10 -11 -11 -11 -11 -11 -11 -11 -12 -12 -12 -12 -12 -12 -12 -13 -13 -13 -13 -13 -13 -13 -13 -13 -13 -13 -13 -13 -13 -13 -13 -13 -14 -14 -14 -14 -14 -14 -14 -14 -14 -14 -14 -14 -15 -15 -15 -15 -15 -15 -15 -15 -15 -15 -16 -16 -16 -16 -16
Height
5909 5910 5910 5910 5909 5909 5910 5911 5911 5912 5913 5913 5913 5912 5912 5912 5911 5910 5910 5910 5908 5907 5906 5905 5904 5904 5903 5902 5901 5899 5899 5898 5896 5895 5894 5892 5891 5889 5888 5886 5885 5883 5882 5880 5878 5876 5875 5873 5871 5869 5867 5865 5863 5862 5860 5857 5855 5853 5850 5848 5845 5843 5841
5906 5907 5908 5907 5907 5906 5908 5909 5909 5909 5910 5910 5910 5909 5909 5908 5908 5907 5907 5907 5906 5905 5903 5902 5901 5901 5900 5899 5898 5897 5896 5895 5893 5892 5891 5889 5888 5886 5884 5883 5881 5880 5878 5877 5875 5873 5871 5869 5867 5865 5863 5862 5860 5858 5856 5853 5851 5849 5847 5844 5842 5839 5836
5904 5904 5904 5903 5904 5905 5904 5906 5907 5907 5907 5907 5906 5905 5905 5905 5905 5904 5904 5904 5903 5902 5900 5899 5898 5898 5897 5895 5895 5894 5892 5891 5890 5889 5888 5887 5885 5883 5882 5880 5878 5877 5875 5873 5872 5870 5868 5866 5864 5862 5860 5858 5856 5853 5851 5849 5847 5845 5842 5840 5838 5835 5832
5900 5902 5901 5900 5902 5903 5901 5903 5905 5904 5904 5904 5903 5902 5902 5902 5902 5901 5901 5900 5899 5899 5897 5896 5895 5895 5894 5892 5891 5890 5889 5888 5887 5886 5885 5883 5882 5880 5878 5877 5875 5874 5872 5870 5868 5866 5864 5862 5861 5858 5856 5854 5851 5849 5847 5844 5842 5840 5838 5835 5833 5830 5827
5896 5898 5899 5897 5899 5901 5899 5900 5902 5901 5901 5901 5900 5898 5898 5899 5899 5898 5897 5896 5896 5896 5894 5892 5892 5891 5890 5889 5888 5887 5885 5884 5883 5882 5881 5880 5878 5876 5875 5873 5872 5870 5868 5866 5865 5863 5861 5858 5856 5854 5852 5849 5847 5844 5842 5839 5837 5835 5833 5830 5828 5825 5822
5895 5895 5896 5895 5895 5898 5898 5897 5899 5899 5898 5898 5897 5896 5895 5896 5896 5895 5894 5893 5893 5892 5890 5889 5888 5888 5887 5885 5884 5883 5882 5881 5880 5879 5877 5876 5874 5872 5871 5869 5868 5867 5865 5862 5860 5858 5856 5854 5852 5849 5847 5845 5842 5839 5837 5834 5832 5829 5828 5825 5822 5819 5816
5895 5894 5894 5893 5893 5894 5895 5895 5895 5896 5896 5895 5894 5893 5893 5893 5893 5891 5890 5890 5889 5888 5886 5885 5884 5884 5882 5881 5881 5880 5879 5878 5876 5875 5873 5872 5870 5869 5867 5866 5865 5863 5861 5859 5857 5854 5852 5850 5847 5845 5842 5840 5837 5835 5832 5829 5826 5824 5822 5819 5816 5813 5810
5894 5892 5892 5891 5890 5890 5893 5893 5893 5893 5894 5893 5891 5891 5890 5889 5889 5888 5887 5886 5885 5883 5882 5881 5880 5880 5878 5877 5876 5876 5875 5874 5873 5872 5870 5868 5867 5865 5864 5862 5861 5860 5858 5856 5853 5851 5848 5846 5843 5841 5838 5835 5832 5830 5827 5824 5821 5818 5815 5813 5811 5808 5805
5892 5890 5889 5890 5888 5887 5890 5892 5891 5891 5891 5890 5888 5888 5888 5887 5886 5884 5883 5883 5881 5880 5878 5877 5877 5876 5873 5872 5872 5872 5872 5871 5870 5869 5867 5865 5863 5861 5860 5858 5857 5856 5855 5852 5850 5847 5845 5842 5839 5836 5833 5830 5828 5825 5822 5820 5816 5813 5810 5807 5805 5803 5800
5890 5888 5888 5889 5887 5886 5887 5888 5889 5888 5887 5887 5885 5884 5885 5885 5884 5882 5879 5879 5878 5876 5874 5873 5873 5872 5869 5868 5868 5868 5868 5867 5866 5865 5863 5861 5859 5857 5856 5854 5852 5851 5850 5848 5845 5842 5839 5837 5834 5831 5829 5826 5823 5820 5817 5815 5812 5808 5805 5802 5799 5797 5795
5887 5886 5886 5886 5885 5885 5885 5885 5886 5885 5884 5884 5883 5881 5881 5881 5881 5879 5876 5875 5874 5873 5871 5871 5870 5869 5867 5866 5866 5866 5864 5863 5862 5861 5859 5856 5854 5853 5851 5850 5848 5846 5844 5842 5840 5837 5835 5832 5830 5827 5825 5822 5818 5815 5812 5809 5807 5803 5800 5797 5794 5791 5789
5885 5883 5883 5882 5882 5883 5883 5882 5883 5883 5881 5881 5880 5878 5878 5878 5877 5875 5873 5871 5870 5868 5868 5868 5866 5864 5863 5863 5863 5863 5862 5860 5859 5856 5854 5852 5850 5848 5847 5845 5844 5842 5840 5838 5835 5833 5831 5828 5825 5822 5819 5817 5814 5811 5807 5804 5802 5798 5795 5792 5789 5785 5782
5883 5881 5880 5879 5879 5880 5880 5880 5880 5880 5878 5877 5876 5875 5875 5874 5872 5870 5868 5867 5865 5864 5864 5864 5862 5860 5859 5860 5860 5859 5859 5857 5855 5851 5849 5847 5845 5844 5843 5841 5839 5837 5835 5833 5830 5828 5825 5823 5821 5817 5814 5812 5809 5806 5802 5799 5797 5794 5790 5787 5785 5781 5777
5880 5879 5878 5876 5876 5877 5877 5877 5877 5877 5876 5874 5872 5871 5871 5869 5867 5865 5864 5862 5861 5861 5860 5859 5858 5857 5856 5855 5855 5855 5854 5852 5850 5847 5844 5842 5841 5840 5839 5837 5835 5833 5830 5828 5825 5823 5820 5818 5816 5813 5810 5807 5804 5801 5798 5794 5792 5789 5786 5783 5780 5777 5773
5875 5875 5875 5875 5873 5872 5872 5872 5872 5873 5872 5870 5869 5868 5867 5864 5862 5860 5858 5858 5858 5857 5855 5854 5853 5852 5851 5851 5851 5850 5849 5847 5844 5842 5840 5838 5837 5836 5834 5833 5831 5829 5826 5824 5821 5818 5816 5813 5810 5808 5805 5802 5799 5796 5793 5790 5787 5783 5781 5778 5775 5772 5768
5873 5871 5870 5871 5871 5869 5867 5867 5867 5867 5867 5866 5865 5864 5862 5860 5858 5855 5854 5854 5854 5852 5850 5849 5849 5848 5847 5847 5846 5846 5844 5841 5839 5837 5835 5834 5833 5831 5830 5828 5826 5824 5822 5819 5816 5813 5810 5808 5805 5803 5799 5797 5794 5791 5788 5785 5782 5778 5775 5772 5769 5766 5763
5871 5869 5866 5866 5867 5866 5865 5863 5862 5863 5863 5861 5860 5859 5857 5855 5852 5851 5851 5851 5849 5846 5844 5844 5845 5844 5843 5843 5843 5842 5840 5837 5834 5833 5831 5829 5828 5827 5825 5823 5822 5819 5817 5814 5811 5808 5805 5803 5800 5797 5794 5791 5788 5786 5783 5780 5777 5773 5770 5766 5762 5759 5756
5868 5868 5866 5862 5861 5861 5861 5860 5859 5859 5859 5856 5855 5853 5851 5849 5847 5847 5848 5846 5842 5839 5839 5840 5842 5842 5840 5839 5839 5838 5835 5832 5830 5828 5827 5825 5824 5822 5821 5819 5817 5814 5811 5809 5806 5803 5800 5797 5795 5792 5790 5787 5784 5781 5778 5776 5772 5769 5765 5761 5757 5753 5749
5864 5864 5863 5861 5858 5855 5856 5856 5855 5853 5852 5852 5850 5847 5843 5842 5844 5844 5843 5839 5835 5833 5835 5838 5840 5839 5837 5835 5834 5832 5828 5826 5825 5823 5822 5821 5820 5818 5817 5815 5812 5809 5806 5803 5801 5798 5795 5792 5789 5787 5784 5782 5779 5776 5773 5771 5768 5764 5760 5756 5752 5748 5745
5861 5860 5859 5858 5856 5853 5851 5852 5851 5848 5847 5848 5847 5844 5842 5842 5842 5841 5837 5832 5829 5830 5833 5836 5836 5835 5832 5830 5828 5826 5823 5821 5820 5819 5818 5817 5816 5814 5813 5811 5808 5804 5801 5798 5795 5792 5789 5787 5784 5781 5779 5777 5774 5771 5768 5765 5762 5758 5754 5750 5747 5743 5741
5856 5856 5855 5854 5853 5850 5849 5848 5847 5845 5844 5844 5843 5842 5842 5843 5840 5836 5831 5827 5827 5831 5833 5834 5833 5831 5828 5825 5822 5820 5819 5818 5817 5816 5815 5814 5812 5811 5808 5806 5803 5799 5796 5793 5790 5787 5784 5782 5779 5776 5774 5772 5769 5766 5763 5759 5756 5752 5749 5745 5742 5739 5736
5851 5852 5851 5850 5849 5847 5845 5845 5844 5843 5841 5840 5838 5837 5838 5838 5834 5829 5827 5827 5830 5832 5832 5831 5829 5826 5823 5819 5817 5816 5815 5814 5814 5813 5811 5810 5808 5806 5804 5801 5799 5794 5791 5788 5786 5783 5780 5777 5774 5771 5768 5766 5763 5760 5757 5753 5750 5746 5743 5740 5738 5735 5732
5846 5846 5846 5845 5845 5843 5842 5841 5840 5840 5839 5836 5833 5833 5832 5830 5827 5826 5827 5828 5830 5830 5829 5827 5824 5819 5816 5814 5813 5812 5812 5811 5811 5810 5808 5807 5804 5802 5799 5796 5793 5790 5786 5784 5781 5778 5776 5773 5770 5767 5764 5760 5757 5754 5751 5747 5744 5741 5738 5735 5733 5731 5729
5842 5841 5841 5841 5840 5839 5839 5837 5836 5836 5835 5833 5830 5828 5824 5822 5823 5825 5826 5826 5826 5827 5826 5823 5818 5814 5812 5810 5809 5809 5809 5808 5807 5806 5804 5803 5800 5797 5794 5791 5788 5785 5782 5779 5777 5774 5771 5768 5765 5763 5760 5756 5752 5748 5745 5742 5739 5737 5734 5731 5729 5727 5725
5838 5837 5836 5836 5836 5836 5835 5834 5832 5832 5831 5830 5827 5823 5818 5819 5822 5823 5823 5823 5824 5823 5821 5818 5814 5811 5810 5808 5807 5806 5805 5804 5803 5802 5800 5798 5795 5792 5790 5786 5783 5780 5777 5774 5772 5769 5767 5764 5761 5759 5756 5752 5748 5744 5740 5738 5735 5732 5729 5727 5725 5723 5721
5833 5832 5831 5831 5832 5832 5831 5829 5827 5827 5827 5824 5820 5818 5818 5819 5820 5819 5819 5820 5819 5816 5814 5812 5811 5809 5808 5806 5805 5803 5802 5800 5798 5797 5795 5793 5790 5787 5785 5781 5778 5774 5772 5770 5767 5764 5762 5759 5757 5754 5751 5746 5743 5740 5736 5733 5730 5727 5725 5723 5721 5718 5717
5828 5827 5826 5826 5826 5827 5827 5824 5822 5821 5820 5816 5813 5814 5816 5816 5816 5816 5816 5814 5811 5809 5808 5807 5806 5805 5804 5803 5801 5799 5797 5795 5793 5792 5790 5788 5785 5782 5780 5776 5772 5769 5767 5765 5762 5759 5757 5754 5752 5750 5746 5742 5739 5737 5733 5730 5726 5724 5721 5719 5717 5715 5713
5823 5822 5821 5821 5821 5820 5820 5818 5814 5812 5811 5810 5811 5812 5812 5812 5812 5812 5810 5808 5806 5805 5804 5802 5801 5799 5799 5798 5796 5794 5792 5790 5788 5786 5785 5782 5780 5777 5775 5772 5768 5764 5761 5759 5757 5754 5752 5750 5747 5746 5743 5738 5735 5732 5729 5726 5722 5719 5717 5716 5714 5712 5711
5817 5816 5815 5815 5815 5814 5814 5812 5809 5806 5805 5807 5809 5808 5807 5807 5807 5805 5803 5802 5801 5801 5800 5798 5796 5795 5794 5793 5790 5788 5786 5784 5783 5781 5779 5776 5774 5771 5769 5766 5763 5759 5755 5752 5750 5749 5747 5745 5742 5740 5739 5735 5731 5728 5725 5721 5717 5714 5713 5712 5710 5709 5708
5811 5810 5809 5809 5809 5809 5809 5808 5806 5804 5803 5804 5805 5803 5802 5803 5802 5800 5799 5798 5797 5796 5795 5793 5792 5791 5789 5787 5784 5783 5781 5779 5778 5776 5772 5769 5767 5765 5762 5760 5758 5755 5752 5749 5746 5744 5742 5739 5737 5735 5733 5730 5727 5724 5721 5718 5714 5711 5708 5707 5707 5706 5704
5807 5805 5804 5804 5803 5803 5804 5803 5801 5800 5799 5799 5799 5799 5798 5798 5797 5795 5794 5793 5792 5792 5791 5789 5788 5786 5784 5781 5779 5777 5775 5773 5771 5768 5765 5762 5760 5758 5756 5754 5752 5750 5747 5745 5742 5739 5736 5734 5732 5729 5727 5724 5722 5720 5717 5714 5711 5707 5705 5704 5703 5702 5700
5804 5803 5801 5799 5797 5798 5799 5798 5795 5794 5795 5795 5794 5794 5793 5792 5791 5790 5789 5789 5789 5788 5787 5785 5783 5780 5777 5775 5773 5770 5767 5765 5764 5761 5758 5756 5754 5752 5750 5749 5746 5744 5742 5739 5737 5734 5731 5729 5727 5725 5722 5719 5716 5714 5711 5708 5706 5703 5701 5700 5699 5698 5697
5799 5799 5797 5795 5793 5793 5794 5792 5790 5790 5791 5790 5789 5788 5786 5786 5785 5785 5785 5784 5784 5784 5782 5780 5778 5775 5773 5771 5769 5765 5762 5760 5759 5756 5753 5751 5750 5748 5746 5743 5740 5738 5736 5734 5732 5729 5727 5724 5722 5720 5718 5715 5712 5709 5706 5703 5701 5699 5697 5696 5695 5694 5694
5793 5793 5791 5788 5788 5788 5787 5786 5785 5785 5785 5784 5783 5782 5781 5781 5780 5780 5778 5777 5776 5776 5776 5774 5773 5771 5769 5766 5764 5761 5758 5756 5754 5751 5748 5746 5744 5742 5740 5737 5734 5732 5731 5729 5726 5724 5722 5720 5717 5715 5713 5711 5709 5705 5703 5700 5697 5695 5693 5692 5692 5691 5690
5788 5787 5785 5783 5783 5782 5780 5779 5779 5778 5778 5778 5778 5778 5777 5776 5776 5774 5772 5770 5770 5770 5770 5769 5767 5765 5763 5760 5757 5754 5752 5750 5747 5745 5743 5740 5737 5735 5734 5731 5728 5727 5725 5723 5721 5719 5717 5715 5713 5711 5709 5707 5705 5702 5699 5697 5694 5692 5690 5689 5688 5688 5687
5783 5781 5779 5779 5779 5777 5776 5775 5775 5774 5773 5773 5773 5773 5773 5772 5772 5770 5767 5766 5765 5764 5763 5762 5760 5757 5755 5753 5750 5748 5746 5743 5741 5739 5736 5734 5731 5730 5728 5726 5724 5722 5720 5718 5716 5714 5712 5710 5708 5706 5705 5703 5701 5698 5696 5693 5691 5689 5687 5686 5685 5684 5684
5777 5776 5774 5774 5773 5773 5771 5770 5770 5769 5769 5768 5768 5768 5767 5767 5767 5765 5762 5761 5759 5757 5755 5754 5753 5751 5749 5746 5744 5743 5740 5737 5736 5733 5730 5728 5725 5723 5722 5721 5719 5717 5715 5713 5712 5710 5708 5706 5704 5702 5700 5699 5697 5695 5692 5690 5688 5686 5685 5684 5683 5682 5681
5771 5770 5769 5768 5768 5767 5766 5765 5765 5764 5763 5763 5762 5762 5761 5760 5760 5759 5756 5754 5754 5753 5750 5748 5747 5745 5743 5740 5739 5737 5735 5732 5729 5727 5724 5721 5719 5717 5716 5714 5714 5712 5710 5708 5707 5705 5703 5701 5699 5697 5696 5695 5693 5691 5689 5687 5685 5684 5683 5682 5681 5680 5679
Wind_Speed
23 24 24 21 21 22 20 19 21 20 19 20 22 25 24 23 24 27 29 27 27 27 25 25 26 24 22 21 22 24 25 26 27 29 30 30 31 32 33 33 33 33 33 34 35 35 35 35 36 36 37 37 37 37 37 38 39 40 40 40 41 41 41
27 26 24 22 21 22 21 19 20 20 18 20 23 25 25 26 27 29 30 29 29 29 28 26 27 27 24 22 22 24 26 27 28 30 31 32 32 33 34 35 35 35 35 35 35 36 36 36 37 37 37 38 38 39 39 40 40 41 41 42 42 42 42
27 26 25 24 22 21 20 18 19 19 18 20 23 24 25 25 27 28 29 29 30 31 30 28 28 28 25 23 23 25 26 28 30 31 32 33 33 34 35 35 36 36 36 36 36 36 36 36 37 37 38 39 39 40 40 41 42 43 43 43 43 43 43
27 25 25 27 24 21 20 18 17 18 18 20 23 25 25 25 25 26 26 27 29 30 29 27 28 28 26 24 24 25 27 28 31 33 34 35 35 35 35 36 36 36 37 37 37 37 37 37 37 38 39 40 40 41 42 43 43 44 44 44 44 44 44
28 25 23 27 25 19 19 19 17 18 18 19 21 24 25 23 22 23 24 26 27 28 27 26 28 29 26 25 25 27 28 30 32 34 35 36 36 36 36 36 36 36 37 38 38 37 37 38 39 39 40 40 41 42 43 44 45 45 45 45 44 44 44
25 25 22 24 23 18 17 19 18 18 18 18 20 23 23 22 21 22 24 27 28 28 26 27 29 30 28 26 26 27 29 31 33 35 36 37 37 37 37 37 37 37 37 38 38 38 38 39 39 40 41 41 42 43 44 45 46 46 46 45 45 45 44
23 25 24 23 23 20 17 17 17 18 18 18 20 21 21 21 21 23 26 27 29 29 27 28 30 30 29 27 27 29 30 32 34 36 37 37 37 37 36 36 36 36 37 37 38 39 39 40 40 41 42 43 43 44 45 46 47 47 46 46 46 45 45
22 24 24 23 24 23 17 15 17 19 19 20 21 20 21 23 23 25 26 27 29 30 28 29 30 31 30 29 29 30 31 33 34 36 36 36 37 37 36 35 35 35 36 36 37 38 39 40 41 42 43 44 45 45 45 46 47 47 47 47 46 46 46
21 22 22 21 23 24 20 17 19 21 21 22 24 22 22 23 24 26 27 27 29 30 30 30 30 30 32 32 32 32 32 33 35 36 36 36 37 36 35 35 35 36 36 37 37 38 39 40 41 43 44 45 46 46 46 46 46 46 47 47 47 47 47
20 20 21 20 22 24 24 23 21 23 25 25 26 26 24 23 25 27 28 28 29 30 31 31 30 31 32 33 33 33 34 36 37 37 36 35 35 35 35 36 36 37 37 38 39 41 41 42 42 44 45 45 46 46 46 46 46 46 46 47 47 47 48
22 23 23 23 24 25 26 26 25 26 27 26 27 28 26 26 26 26 28 29 30 31 31 30 31 32 32 33 33 34 36 39 38 37 36 35 34 35 36 37 37 38 39 40 41 43 43 43 43 44 44 45 45 46 46 47 47 46 47 47 48 48 49
25 27 28 28 29 28 27 28 27 27 29 29 29 29 28 28 27 27 29 30 32 33 31 29 31 33 34 33 32 33 37 39 38 37 35 34 34 36 37 38 38 39 40 41 43 44 44 44 45 45 45 45 45 46 47 48 48 48 48 48 48 49 50
24 27 31 33 32 30 29 30 29 30 32 32 32 32 30 29 28 29 30 32 33 33 31 31 31 33 34 32 32 35 38 38 36 36 35 35 36 37 38 39 40 41 42 44 46 46 46 46 46 47 46 46 47 47 48 49 49 49 49 49 48 49 49
26 26 29 33 34 32 32 33 32 32 33 34 34 32 31 30 30 31 32 33 34 32 32 33 33 33 33 32 34 39 39 36 35 35 36 37 38 38 39 40 41 43 45 46 48 48 48 47 47 47 47 47 48 48 49 49 49 49 50 49 49 49 48
31 30 29 31 36 37 36 36 35 33 33 34 34 32 30 30 32 33 34 35 34 33 34 35 33 32 32 33 38 41 39 37 35 35 36 38 39 39 40 41 42 44 46 48 48 49 48 48 48 48 48 48 48 48 49 49 49 50 51 51 50 49 47
31 35 35 33 35 39 40 39 37 34 33 33 33 33 31 31 33 35 35 35 34 34 36 35 32 31 32 35 41 42 40 37 37 37 38 38 39 40 41 42 44 46 48 48 49 49 49 49 49 49 49 49 48 49 50 49 49 50 51 51 50 49 48
30 34 38 39 37 39 40 40 39 35 32 32 33 33 32 32 34 35 33 34 35 35 36 34 31 31 34 38 42 42 39 38 38 39 39 40 40 41 42 44 46 48 49 49 49 50 50 50 49 49 49 49 49 50 50 49 49 50 51 50 50 48 48
32 33 36 40 41 40 39 39 39 36 34 34 35 36 34 32 33 33 32 33 36 37 36 34 32 34 38 40 42 41 39 38 39 40 40 41 42 43 45 46 48 50 50 50 49 50 49 49 50 50 50 49 49 50 50 49 49 49 50 49 48 47 47
35 34 34 35 39 40 39 36 36 35 34 33 34 38 38 31 29 31 32 34 36 36 34 33 35 39 40 41 41 40 39 40 40 41 42 42 43 45 46 48 50 51 51 50 50 49 48 48 50 51 51 49 49 49 49 49 49 49 49 48 46 45 44
35 34 33 34 35 37 37 34 32 33 33 30 29 32 35 31 30 33 33 36 38 35 32 33 37 40 40 40 40 39 40 40 41 42 43 44 45 46 47 49 50 51 50 50 49 47 47 49 50 51 50 49 49 49 48 48 49 49 48 46 44 43 42
35 33 33 32 31 32 33 31 29 30 30 28 26 27 30 32 34 36 37 39 38 34 32 34 37 38 39 40 40 40 40 41 41 42 44 45 46 47 49 50 51 51 50 49 48 47 47 48 48 49 49 49 48 48 48 49 50 47 45 44 42 41 39
35 31 28 27 26 27 28 27 26 27 27 28 29 30 31 32 36 38 39 40 38 34 35 37 38 39 40 40 41 41 41 41 42 43 45 46 48 49 50 51 51 51 51 49 47 46 45 46 47 48 48 48 48 48 48 49 48 45 43 42 40 38 37
34 30 27 26 26 26 26 26 27 26 26 29 32 33 33 34 36 37 37 37 34 34 37 39 39 40 41 40 41 42 41 42 43 44 45 47 48 50 51 51 51 51 51 48 45 43 43 45 46 47 47 47 47 47 48 47 45 43 42 41 39 37 35
31 31 29 29 29 28 27 27 28 28 29 32 34 35 36 35 33 33 34 33 31 33 36 37 38 40 40 41 42 43 42 43 44 45 46 47 48 50 50 51 51 51 50 47 43 42 44 45 46 46 47 46 47 48 47 45 43 41 40 40 38 36 34
31 33 32 32 32 31 29 29 29 30 30 31 34 37 38 34 32 33 33 30 30 33 34 34 36 39 40 41 43 43 43 45 45 45 46 48 49 49 49 50 51 51 50 46 43 43 43 44 45 45 45 45 47 47 46 43 42 41 39 39 38 35 32
32 34 34 34 33 32 31 31 31 32 31 33 36 38 37 35 33 32 30 30 31 33 33 34 38 41 42 42 43 44 45 46 46 46 46 47 48 49 49 50 51 50 48 43 42 43 42 42 43 43 44 46 46 44 43 43 43 40 38 38 37 33 30
33 33 35 36 35 33 32 33 34 34 33 36 37 36 35 35 32 30 30 32 33 32 34 38 41 44 43 42 43 45 45 46 45 44 45 47 48 49 49 49 51 50 46 42 42 42 41 40 41 41 43 44 41 39 40 43 43 40 38 38 35 31 28
34 35 37 38 37 35 34 35 37 36 36 37 37 35 33 31 30 29 31 32 31 32 36 40 42 43 42 41 43 45 44 43 42 43 45 48 48 48 47 48 50 48 44 42 43 43 41 40 40 41 41 40 39 39 40 43 44 42 40 37 32 28 27
38 39 40 40 38 37 35 34 34 35 35 33 32 31 30 29 29 30 31 31 32 35 37 39 41 42 41 41 43 42 41 41 42 45 48 49 48 47 46 46 48 45 42 44 46 46 42 41 41 42 41 39 40 42 42 44 45 44 42 37 31 28 26
40 41 43 43 41 38 34 32 33 34 34 31 29 31 32 30 30 31 31 33 35 37 38 40 41 41 41 42 42 41 40 42 45 48 50 49 49 49 47 46 47 45 45 46 47 45 43 42 42 43 42 40 40 41 42 44 44 44 42 35 29 28 27
41 44 45 45 44 39 33 32 36 37 35 34 34 35 33 30 31 32 33 35 37 38 39 40 41 41 41 41 42 43 43 45 48 50 50 50 51 51 49 47 47 47 47 47 45 44 44 44 43 42 41 41 40 41 42 43 43 43 39 30 25 26 27
44 43 44 46 45 38 32 33 37 37 35 35 35 35 33 33 33 34 34 35 37 38 40 40 41 43 44 43 43 44 47 50 51 51 52 53 53 51 50 49 48 48 47 46 44 44 44 44 43 42 41 41 41 41 43 43 42 40 35 29 26 27 26
45 43 45 46 42 37 32 35 37 36 35 36 36 36 36 36 34 33 35 37 38 39 40 41 42 44 46 46 45 47 52 55 54 55 56 55 52 51 51 50 49 48 47 45 44 44 44 44 43 42 41 40 40 41 42 43 41 38 33 31 31 30 27
45 43 43 41 38 36 36 38 36 35 36 37 37 37 36 34 33 35 39 42 42 42 44 45 46 48 50 50 51 53 56 57 56 56 56 54 54 54 52 50 49 48 46 45 44 44 44 43 42 41 40 39 39 40 42 42 39 35 31 29 28 27 25
42 39 36 36 37 39 40 38 36 36 37 37 38 38 36 35 36 40 44 46 45 46 47 48 49 51 52 53 55 56 56 57 57 56 56 55 55 54 52 50 48 46 45 44 44 44 43 42 41 40 39 38 38 39 41 39 35 31 28 25 24 23 22
41 38 37 39 41 42 41 40 40 40 40 40 41 39 36 36 38 42 45 47 48 48 49 49 51 53 54 56 56 56 56 57 57 57 57 57 54 52 51 49 46 44 44 44 44 43 42 40 39 38 37 36 37 38 38 36 31 27 24 22 21 21 20
42 41 40 41 42 42 43 43 42 41 40 41 41 39 38 39 42 44 47 48 49 50 51 53 54 55 55 55 55 55 56 57 57 57 57 55 53 52 50 47 45 44 44 43 43 42 41 40 38 37 36 35 35 36 35 32 28 25 23 21 20 20 19
43 42 42 42 42 43 42 41 41 41 42 43 42 40 40 43 46 46 48 49 50 51 53 54 54 53 53 54 55 56 56 56 55 55 54 53 52 50 48 46 44 43 42 42 42 41 40 39 38 37 36 35 34 33 32 29 27 26 24 22 21 21 20
Wind_Direction
268 269 271 271 271 271 273 273 271 273 274 272 272 273 275 277 279 280 282 285 286 285 286 291 293 295 298 302 307 309 311 312 313 313 313 312 311 310 310 311 313 314 314 314 313 314 314 314 313 312 311 311 311 311 311 312 313 314 314 315 315 315 315
277 274 273 269 264 268 272 274 278 282 282 279 276 276 278 279 281 281 281 285 287 284 285 289 292 294 297 301 304 307 309 310 313 314 314 313 311 309 309 309 311 312 313 313 313 314 314 314 313 311 309 309 308 309 309 310 311 312 313 313 313 313 313
274 277 281 275 264 265 272 277 284 287 286 284 282 282 282 282 283 282 282 286 288 286 285 287 291 293 296 301 304 305 307 309 311 312 312 312 311 309 308 307 309 310 311 312 313 314 314 313 312 310 309 308 307 307 307 307 309 310 311 312 312 311 310
270 273 282 279 266 262 271 279 285 285 283 285 286 288 289 288 286 285 287 291 292 288 285 288 291 292 295 301 304 306 307 308 310 311 312 312 312 310 308 307 308 309 310 312 313 314 315 313 312 311 310 309 308 307 307 307 308 310 311 311 311 310 309
272 271 274 277 273 267 275 284 287 287 286 287 289 291 294 295 289 287 292 297 295 289 286 290 294 293 295 301 305 306 307 308 310 311 312 312 312 310 309 308 308 309 310 311 313 314 314 313 313 312 311 309 308 307 307 308 309 310 311 311 310 309 309
269 271 270 277 280 274 278 288 292 292 291 288 289 293 298 300 293 290 294 296 294 290 289 292 295 295 297 302 305 306 307 309 310 312 313 313 312 311 310 309 309 309 310 311 313 313 313 313 313 312 311 310 309 309 309 309 310 310 311 311 311 310 309
262 267 271 274 277 276 280 291 294 293 292 288 290 296 301 301 296 292 294 294 294 293 294 294 295 296 299 303 306 307 308 310 311 312 313 312 311 310 309 309 309 310 311 312 313 314 313 314 313 313 312 312 311 310 310 310 310 311 312 312 311 311 310
263 263 268 272 276 279 282 289 290 290 293 292 293 298 300 301 298 294 294 295 294 296 296 294 295 299 302 306 308 309 309 308 310 311 312 311 311 309 309 308 307 307 308 311 313 314 314 314 314 314 313 313 312 311 311 311 311 312 312 312 311 311 311
270 266 269 273 277 280 281 284 287 289 293 294 294 297 298 299 298 295 296 296 294 296 294 293 298 304 308 309 309 309 308 308 310 312 312 312 311 310 309 308 306 305 306 307 311 313 314 315 315 315 314 314 312 311 311 311 312 313 313 312 312 312 312
275 275 278 280 279 281 284 288 290 290 291 292 293 295 297 297 295 295 297 296 295 296 293 294 303 310 312 310 308 309 310 310 312 313 313 313 311 310 310 308 307 307 306 308 311 313 316 316 316 315 314 313 311 311 312 312 313 314 313 312 312 313 313
278 279 282 285 282 281 284 288 289 287 288 288 289 293 295 295 293 294 295 294 294 294 292 297 307 310 309 306 304 307 310 311 312 313 314 314 312 311 311 310 310 310 312 314 315 316 316 316 315 314 312 312 312 312 313 314 315 314 313 313 313 313 313
275 279 281 283 283 285 286 288 289 288 287 286 287 291 293 293 294 293 292 293 294 293 294 302 307 307 305 303 301 305 308 309 311 314 315 315 313 312 313 313 314 315 316 318 317 316 315 315 315 313 313 313 314 314 314 315 315 315 313 313 314 314 313
272 276 280 282 284 286 286 287 290 289 287 287 287 290 292 293 294 293 292 293 293 294 297 303 305 303 301 300 300 304 307 308 311 315 317 315 313 313 314 314 316 318 319 319 317 316 315 315 314 314 314 315 315 315 315 315 315 315 313 313 315 315 313
275 273 278 283 286 287 288 288 288 287 287 288 287 288 291 292 292 292 292 292 294 295 298 300 302 299 295 295 301 305 307 309 313 315 315 314 313 313 314 315 318 320 320 319 317 315 315 315 315 315 315 315 316 316 316 316 315 314 313 314 316 315 312
285 281 281 286 290 292 292 292 290 288 286 285 286 289 291 291 292 292 292 294 298 300 299 300 300 295 291 294 301 306 308 311 314 315 314 313 313 314 315 317 320 320 319 317 315 314 315 315 315 315 315 315 316 317 317 316 315 314 315 316 316 315 312
290 290 290 292 294 294 295 295 293 290 285 284 285 288 289 290 292 293 295 301 303 300 298 297 296 294 294 297 301 305 309 312 314 315 314 314 314 315 316 318 320 319 317 315 315 314 314 315 315 316 315 316 317 317 317 316 315 315 317 317 316 315 311
288 291 293 296 296 295 295 295 293 290 289 287 285 285 287 290 292 295 301 305 301 296 295 295 296 297 295 296 299 303 307 312 314 315 315 315 316 316 317 319 318 316 315 315 314 314 314 314 315 316 316 317 318 317 316 316 316 317 318 318 317 314 310
285 289 292 295 296 295 293 292 292 292 291 288 286 285 284 285 291 298 303 301 295 294 294 294 295 296 292 293 298 303 308 313 315 315 316 316 316 316 317 317 316 315 315 314 314 314 313 315 316 317 317 317 317 317 316 316 317 318 319 318 316 312 310
288 290 292 293 294 293 292 292 291 291 290 291 293 288 278 278 294 303 299 294 293 293 291 289 289 291 292 295 301 307 312 314 315 316 316 315 315 315 315 314 314 314 314 314 315 314 314 316 318 317 317 317 317 316 316 316 318 320 320 318 315 312 311
288 290 292 293 291 289 289 290 290 290 291 295 296 287 274 275 295 303 295 290 291 289 287 287 287 290 295 300 306 310 313 314 315 315 315 314 313 313 312 312 313 313 313 315 317 315 315 317 317 316 316 316 316 316 316 317 320 322 321 318 315 313 312
290 291 291 290 289 285 285 288 288 289 293 295 293 288 281 281 293 297 289 285 285 282 284 291 293 296 300 304 308 311 313 313 313 312 312 311 310 310 310 310 311 312 314 317 317 315 314 315 315 314 314 315 316 317 317 319 322 322 319 316 315 314 313
291 291 290 289 288 286 285 286 286 288 292 293 290 290 290 289 291 292 289 286 282 279 286 294 297 301 304 306 307 310 311 311 310 310 310 308 308 308 308 309 311 312 314 317 316 313 313 314 313 312 314 315 317 318 319 320 321 320 318 315 315 316 313
291 290 290 290 289 288 286 285 286 288 289 288 288 289 290 289 288 290 293 293 283 278 286 294 297 301 304 305 306 308 309 308 307 306 305 305 305 306 307 309 310 311 313 316 313 311 313 313 311 312 313 315 317 317 319 320 320 319 317 315 315 316 313
290 290 290 289 288 287 285 285 287 287 286 287 288 288 286 284 284 287 292 291 280 277 287 295 297 299 303 304 305 306 305 303 302 302 302 302 303 304 306 309 309 310 313 313 310 310 313 313 311 312 314 315 316 317 319 320 319 318 316 315 315 314 310
286 288 289 288 288 286 284 285 285 285 286 286 286 286 284 284 287 287 286 283 278 281 291 297 297 298 300 301 301 301 300 299 299 300 301 301 303 305 307 309 309 310 313 311 309 311 313 311 310 312 314 315 316 317 319 319 319 317 315 315 315 313 307
287 288 288 289 290 288 285 284 283 284 284 281 279 282 285 289 290 283 277 279 284 290 296 298 296 295 295 296 297 296 295 296 297 299 301 302 304 306 308 309 309 310 311 310 309 310 310 309 310 313 315 316 318 318 318 319 318 316 316 316 316 312 306
290 290 291 292 293 290 285 281 280 280 279 276 278 282 286 286 282 274 275 285 293 297 298 296 294 294 295 296 295 294 293 295 297 300 302 304 305 306 308 308 308 309 309 308 308 309 309 309 310 314 316 317 317 317 316 316 316 316 317 318 316 311 306
289 290 291 290 290 288 283 279 278 277 275 276 279 282 284 281 276 278 287 294 296 296 294 293 293 295 296 295 293 292 292 294 299 303 306 306 305 306 307 307 307 308 307 306 308 309 309 309 310 313 313 312 311 311 310 311 311 311 313 314 313 309 305
288 289 289 287 286 286 284 282 282 281 280 279 278 281 285 284 281 286 293 294 293 294 293 292 293 294 294 293 291 291 292 295 301 306 307 307 306 306 305 305 307 308 305 304 308 309 308 308 309 309 309 308 307 307 308 309 310 310 309 307 303 304 304
285 286 286 286 288 287 283 282 285 285 282 277 277 284 289 287 284 287 289 289 291 292 291 291 293 294 294 294 293 293 294 299 304 307 308 308 307 306 306 306 307 305 302 303 306 307 307 308 308 307 308 308 306 306 308 309 310 311 309 303 297 301 305
283 286 286 287 287 281 275 279 284 284 279 276 281 288 288 285 285 285 285 285 288 289 289 291 294 296 295 296 296 296 299 304 309 310 309 308 308 307 307 307 306 304 302 304 306 306 306 306 307 307 307 307 306 307 308 308 309 311 307 299 297 306 308
285 286 287 288 283 271 267 277 282 282 281 282 285 286 285 284 283 280 279 283 286 288 290 292 296 296 296 299 302 302 304 308 310 309 308 308 308 307 307 306 305 303 303 304 304 304 304 304 305 306 306 306 308 309 309 309 311 310 302 288 288 301 308
286 287 288 287 275 262 268 282 281 279 284 287 286 284 284 285 281 276 280 288 290 290 292 294 295 295 295 298 302 302 304 306 306 306 307 307 306 305 304 304 303 302 303 303 303 303 303 303 304 304 305 306 309 309 309 310 311 309 299 287 283 291 299
287 289 287 278 267 267 282 289 281 277 284 289 288 286 284 283 281 282 289 294 294 295 295 293 292 292 292 295 298 299 301 302 303 304 305 304 303 303 303 303 302 302 302 302 301 301 301 301 302 302 303 306 309 309 309 311 311 306 299 290 285 288 293
289 290 281 271 272 282 290 288 280 279 284 286 286 283 278 277 281 287 292 295 295 294 292 290 289 291 292 295 297 298 300 301 302 303 302 302 302 302 302 301 301 301 301 300 299 299 299 299 300 300 302 307 309 309 310 311 310 305 299 293 288 289 291
287 285 277 273 279 286 287 284 283 283 282 282 283 280 274 274 281 288 291 292 292 291 290 290 291 292 294 296 297 297 299 300 301 300 300 300 300 299 298 299 299 298 297 296 296 296 297 297 297 298 302 306 308 308 311 312 308 303 299 294 289 289 290
284 283 279 278 283 287 285 283 284 282 279 280 283 278 272 275 283 288 289 290 291 292 292 292 293 294 295 295 296 297 298 298 298 299 298 297 296 295 296 296 295 294 293 293 293 294 295 295 296 297 301 305 305 307 311 311 305 299 296 292 287 286 288
282 281 279 278 281 283 281 278 279 279 278 279 278 276 276 282 287 288 288 288 289 290 290 291 293 294 295 295 296 297 297 297 297 297 296 294 294 295 295 293 292 291 291 290 292 292 292 293 294 296 299 302 302 305 310 311 303 295 292 290 286 283 285